CW2969 Weather Reports


Display with metric or nautical units.
time (UTC)temp
F
wind
direction
speed
MPH
gust
MPH
rain 1hr
in
rain 24hr
in
rain mn
in
humidity
%
barometer
mb
20260902124015 78 326 0.0 0.0 0.00 0.00 0.00 78 1013.8
20260902123515 78 326 0.0 0.0 0.00 0.00 0.00 78 1013.8
20260902123014 78 198 0.0 0.0 0.00 0.00 0.00 78 1013.7
20260902122514 78 198 0.0 1.0 0.00 0.00 0.00 78 1013.6
20260902122014 78 198 0.0 1.0 0.00 0.00 0.00 78 1013.6
20260902121514 78 208 0.0 1.0 0.00 0.00 0.00 78 1013.6
20260902120514 78 209 1.0 2.0 0.00 0.00 0.00 79 1013.6
20260902120014 78 202 0.0 1.0 0.00 0.00 0.00 79 1013.6
20260902115514 78 201 0.0 1.0 0.00 0.00 0.00 79 1013.6
20260902115014 78 202 0.0 1.0 0.00 0.00 0.00 79 1013.6
20260902114514 78 171 0.0 0.0 0.00 0.00 0.00 79 1013.6
20260902114014 77 171 0.0 0.0 0.00 0.00 0.00 79 1013.6
20260902113514 77 190 0.0 0.0 0.00 0.00 0.00 78 1013.5
20260902113014 77 106 0.0 0.0 0.00 0.00 0.00 78 1013.5
20260902112514 77 106 0.0 0.0 0.00 0.00 0.00 78 1013.5
20260902112014 77 106 0.0 0.0 0.00 0.00 0.00 78 1013.5
20260902110014 78 106 0.0 0.0 0.00 0.00 0.00 77 1013.5
20260902105013 78 106 0.0 0.0 0.00 0.00 0.00 77 1013.5
20260902104513 78 106 0.0 0.0 0.00 0.00 0.00 77 1013.5
20260902103513 78 106 0.0 0.0 0.00 0.00 0.00 77 1013.6
20260902102013 78 106 0.0 0.0 0.00 0.00 0.00 77 1013.5
20260902101513 78 106 0.0 0.0 0.00 0.00 0.00 77 1013.5
20260902101013 79 106 0.0 0.0 0.00 0.00 0.00 76 1013.6
20260902100513 79 106 0.0 0.0 0.00 0.00 0.00 76 1013.5
20260902100013 79 106 0.0 0.0 0.00 0.00 0.00 76 1013.3
20260902095013 79 106 0.0 0.0 0.00 0.00 0.00 76 1013.4
20260902094513 79 106 0.0 0.0 0.00 0.00 0.00 76 1013.4
20260902093513 79 106 0.0 0.0 0.00 0.00 0.00 75 1013.5
20260902093012 79 106 0.0 0.0 0.00 0.00 0.00 75 1013.4
20260902092512 80 106 0.0 0.0 0.00 0.00 0.00 75 1013.5
20260902090512 80 106 0.0 0.0 0.00 0.00 0.00 74 1013.6
20260902085012 80 106 0.0 0.0 0.00 0.00 0.00 74 1013.6
20260902084512 81 106 0.0 0.0 0.00 0.00 0.00 73 1013.7
20260902084012 81 106 0.0 0.0 0.00 0.00 0.00 73 1013.6
20260902083512 81 106 0.0 0.0 0.00 0.00 0.00 73 1013.6
20260902083012 81 106 0.0 0.0 0.00 0.00 0.00 73 1013.6
20260902082512 81 106 0.0 0.0 0.00 0.00 0.00 73 1013.7
20260902082011 81 106 0.0 1.0 0.00 0.00 0.00 73 1013.8
20260902081512 81 106 0.0 1.0 0.00 0.00 0.00 72 1013.8
20260902081012 81 163 0.0 0.0 0.00 0.00 0.00 71 1013.7
20260902080512 81 163 0.0 0.0 0.00 0.00 0.00 72 1013.7
20260902080011 81 163 0.0 1.0 0.00 0.00 0.00 72 1013.7
20260902075512 82 163 0.0 1.0 0.00 0.00 0.00 72 1013.7
20260902075011 82 163 0.0 0.0 0.00 0.00 0.00 71 1013.6
20260902074511 82 163 0.0 0.0 0.00 0.00 0.00 71 1013.6
20260902074011 82 163 0.0 0.0 0.00 0.00 0.00 71 1013.6
20260902073011 82 163 0.0 0.0 0.00 0.00 0.00 70 1013.8
20260902072511 83 163 0.0 0.0 0.00 0.00 0.00 70 1013.8
20260902072011 83 98 0.0 0.0 0.00 0.00 0.00 70 1013.8
20260902071511 83 98 0.0 4.0 0.00 0.00 0.00 70 1013.9
20260902071011 83 98 0.0 4.0 0.00 0.00 0.00 70 1013.8
20260902070511 83 146 0.0 0.0 0.00 0.00 0.00 69 1013.8
20260902070011 83 146 0.0 0.0 0.00 0.00 0.00 69 1013.8
20260902065511 83 146 0.0 0.0 0.00 0.00 0.00 69 1013.8
20260902065011 83 146 0.0 2.0 0.00 0.00 0.00 69 1013.9
20260902064511 83 160 0.0 2.0 0.00 0.00 0.00 69 1013.8
20260902064011 83 145 2.0 2.0 0.00 0.00 0.00 69 1013.8
20260902063510 84 145 0.0 1.0 0.00 0.00 0.00 68 1013.8
20260902063011 84 126 0.0 0.0 0.00 0.00 0.00 68 1013.8
20260902062511 84 126 0.0 3.0 0.00 0.00 0.00 68 1013.8
20260902062010 84 123 0.0 3.0 0.00 0.00 0.00 68 1013.8
20260902060510 84 250 1.0 3.0 0.00 0.00 0.00 67 1013.8
20260902060010 84 200 3.0 3.0 0.00 0.00 0.00 67 1013.7
20260902055510 85 222 0.0 1.0 0.00 0.00 0.00 67 1013.8
20260902054510 85 111 0.0 1.0 0.00 0.00 0.00 66 1013.7
20260902054010 85 219 1.0 2.0 0.00 0.00 0.00 66 1013.7
20260902053510 85 209 1.0 2.0 0.00 0.00 0.00 66 1013.6
20260902053010 85 214 2.0 2.0 0.00 0.00 0.00 66 1013.7
20260902051510 86 155 0.0 3.0 0.00 0.00 0.00 65 1013.7
20260902051010 86 214 2.0 3.0 0.00 0.00 0.00 65 1013.6
20260902050010 86 167 1.0 4.0 0.00 0.00 0.00 64 1013.6
20260902045509 86 164 1.0 4.0 0.00 0.00 0.00 64 1013.7
20260902045009 86 217 0.0 5.0 0.00 0.00 0.00 63 1013.6
20260902044509 87 146 1.0 5.0 0.00 0.00 0.00 63 1013.6
20260902044010 87 197 2.0 3.0 0.00 0.00 0.00 62 1013.7
20260902043009 87 147 2.0 3.0 0.00 0.00 0.00 62 1013.7
20260902042509 87 261 0.0 2.0 0.00 0.00 0.00 61 1013.8
20260902042009 87 127 1.0 5.0 0.00 0.00 0.00 60 1013.7
20260902041509 88 164 4.0 5.0 0.00 0.00 0.00 60 1013.8
20260902041009 88 198 3.0 5.0 0.00 0.00 0.00 60 1013.7
20260902040509 88 140 2.0 8.0 0.00 0.00 0.00 59 1013.7
20260902040009 88 245 3.0 8.0 0.00 0.00 0.00 59 1013.5
20260902035509 89 112 6.0 10.0 0.00 0.00 0.00 58 1013.4
20260902035009 89 194 2.0 10.0 0.00 0.00 0.00 58 1013.4
20260902034509 89 127 1.0 7.0 0.00 0.00 0.00 57 1013.3
20260902034009 89 126 1.0 3.0 0.00 0.00 0.00 57 1013.3
20260902033508 89 150 1.0 6.0 0.00 0.00 0.00 56 1013.2
20260902033008 89 125 1.0 8.0 0.00 0.00 0.00 56 1013.2
20260902032509 90 132 2.0 8.0 0.00 0.00 0.00 56 1013.1
20260902032008 90 130 2.0 3.0 0.00 0.00 0.00 56 1013.1
20260902031508 90 143 1.0 5.0 0.00 0.00 0.00 55 1013.1
20260902031008 90 159 2.0 5.0 0.00 0.00 0.00 55 1012.9
20260902030508 90 173 1.0 4.0 0.00 0.00 0.00 55 1012.9
20260902030008 90 106 2.0 4.0 0.00 0.00 0.00 54 1012.8
20260902024508 90 128 3.0 7.0 0.00 0.00 0.00 54 1012.4
20260902024008 91 113 3.0 7.0 0.00 0.00 0.00 53 1012.4
20260902023508 91 164 2.0 4.0 0.00 0.00 0.00 53 1012.3
20260902022507 91 103 1.0 3.0 0.00 0.00 0.00 52 1012.1
20260902022007 91 137 3.0 3.0 0.00 0.00 0.00 52 1012.0
20260902021507 91 147 2.0 3.0 0.00 0.00 0.00 51 1011.9
20260902020507 92 164 0.0 3.0 0.00 0.00 0.00 50 1011.8
20260902020007 92 111 0.0 3.0 0.00 0.00 0.00 50 1011.8
20260902015507 92 211 2.0 3.0 0.00 0.00 0.00 50 1011.6
20260902015007 92 232 3.0 3.0 0.00 0.00 0.00 49 1011.4
20260902014507 92 121 0.0 3.0 0.00 0.00 0.00 49 1011.5
20260902014007 93 135 3.0 3.0 0.00 0.00 0.00 48 1011.5
20260902013507 93 136 2.0 4.0 0.00 0.00 0.00 48 1011.5
20260902013007 93 140 3.0 4.0 0.00 0.00 0.00 48 1011.4
20260902012506 93 146 1.0 6.0 0.00 0.00 0.00 47 1011.4
20260902012006 94 113 3.0 10.0 0.00 0.00 0.00 47 1011.4
20260902011507 94 140 2.0 10.0 0.00 0.00 0.00 47 1011.4
20260902011007 94 141 4.0 7.0 0.00 0.00 0.00 46 1011.3
20260902010507 95 100 3.0 6.0 0.00 0.00 0.00 45 1011.2
20260902010006 95 153 3.0 6.0 0.00 0.00 0.00 45 1011.2
20260902005507 96 119 1.0 7.0 0.00 0.00 0.00 45 1011.1
20260902005006 96 131 2.0 9.0 0.00 0.00 0.00 44 1011.1
20260902004506 96 99 3.0 9.0 0.00 0.00 0.00 43 1011.1
20260902004006 96 183 4.0 7.0 0.00 0.00 0.00 43 1011.1
20260902003006 96 112 2.0 6.0 0.00 0.00 0.00 43 1011.1
20260902002506 96 108 6.0 6.0 0.00 0.00 0.00 43 1011.2
20260902002006 96 114 1.0 2.0 0.00 0.00 0.00 42 1011.2
20260902001506 96 119 1.0 7.0 0.00 0.00 0.00 42 1011.2
20260902001006 97 93 2.0 7.0 0.00 0.00 0.00 42 1011.3
20260902000506 97 103 3.0 6.0 0.00 0.00 0.00 42 1011.2
20260902000005 97 100 6.0 8.0 0.00 0.00 0.00 42 1011.3
20260901235506 97 91 3.0 8.0 0.00 0.00 0.00 42 1011.2
20260901234505 98 109 3.0 4.0 0.00 0.00 0.00 41 1011.2
20260901233505 98 83 5.0 11.0 0.00 0.00 0.00 40 1011.2
20260901233005 99 96 6.0 6.0 0.00 0.00 0.00 40 1011.3
20260901232535 99 98 2.0 5.0 0.00 0.00 0.00 40 1011.2
20260901232035 99 124 4.0 5.0 0.00 0.00 0.00 40 1011.1
20260901231535 99 49 1.0 7.0 0.00 0.00 0.00 39 1011.1
20260901231035 100 101 3.0 7.0 0.00 0.00 0.00 39 1011.1
20260901230535 100 105 1.0 5.0 0.00 0.00 0.00 39 1011.1
20260901225535 100 116 2.0 9.0 0.00 0.00 0.00 39 1011.1
20260901225034 99 119 1.0 7.0 0.00 0.00 0.00 40 1011.0
20260901224535 99 93 0.0 7.0 0.00 0.00 0.00 40 1011.0
20260901224034 99 100 1.0 4.0 0.00 0.00 0.00 40 1011.0
20260901223534 99 82 1.0 4.0 0.00 0.00 0.00 40 1011.1
20260901223034 99 136 0.0 3.0 0.00 0.00 0.00 40 1011.1
20260901222534 99 355 1.0 3.0 0.00 0.00 0.00 40 1011.1
20260901222034 99 86 0.0 7.0 0.00 0.00 0.00 40 1011.1
20260901221534 99 88 2.0 7.0 0.00 0.00 0.00 40 1011.2
20260901221034 100 131 3.0 7.0 0.00 0.00 0.00 39 1011.2
20260901220534 101 81 2.0 7.0 0.00 0.00 0.00 38 1011.1
20260901215534 101 129 4.0 7.0 0.00 0.00 0.00 38 1011.2
20260901215034 101 150 0.0 2.0 0.00 0.00 0.00 39 1011.1
20260901214534 101 208 1.0 6.0 0.00 0.00 0.00 39 1011.1
20260901214034 101 104 6.0 6.0 0.00 0.00 0.00 39 1011.1
20260901213533 100 111 2.0 3.0 0.00 0.00 0.00 40 1011.2
20260901213034 100 96 1.0 3.0 0.00 0.00 0.00 40 1011.2
20260901211533 100 121 5.0 9.0 0.00 0.00 0.00 39 1011.4
20260901211033 100 224 2.0 3.0 0.00 0.00 0.00 39 1011.4
20260901205533 101 116 4.0 6.0 0.00 0.00 0.00 37 1011.7
20260901205033 101 109 4.0 8.0 0.00 0.00 0.00 38 1011.8
20260901204533 101 138 2.0 8.0 0.00 0.00 0.00 39 1011.7
20260901204033 101 167 3.0 3.0 0.00 0.00 0.00 39 1011.9
20260901203503 101 76 2.0 4.0 0.00 0.00 0.00 40 1012.1
20260901202533 99 90 0.0 7.0 0.00 0.00 0.00 41 1012.1
20260901202033 99 124 1.0 7.0 0.00 0.00 0.00 41 1012.2
20260901201032 99 113 2.0 7.0 0.00 0.00 0.00 42 1012.3
20260901200533 99 162 5.0 7.0 0.00 0.00 0.00 43 1012.5
20260901200032 99 126 2.0 6.0 0.00 0.00 0.00 43 1012.5
20260901195532 99 110 6.0 6.0 0.00 0.00 0.00 43 1012.6
20260901195032 99 118 4.0 4.0 0.00 0.00 0.00 43 1012.6
20260901194532 98 132 1.0 3.0 0.00 0.00 0.00 44 1012.7
20260901192532 99 304 1.0 3.0 0.00 0.00 0.00 44 1013.0
20260901192032 98 343 1.0 2.0 0.00 0.00 0.00 46 1013.1
20260901191032 97 211 2.0 7.0 0.00 0.00 0.00 47 1013.1
20260901190031 97 138 1.0 7.0 0.00 0.00 0.00 48 1013.2
20260901185531 97 326 2.0 6.0 0.00 0.00 0.00 48 1013.3
20260901185031 97 118 6.0 6.0 0.00 0.00 0.00 49 1013.5
20260901184532 97 109 3.0 4.0 0.00 0.00 0.00 49 1013.6
20260901184032 96 355 1.0 4.0 0.00 0.00 0.00 50 1013.7
20260901183531 96 332 1.0 8.0 0.00 0.00 0.00 50 1013.9
20260901183032 96 150 3.0 8.0 0.00 0.00 0.00 51 1013.9
20260901182531 95 110 1.0 6.0 0.00 0.00 0.00 51 1014.0
20260901182032 96 86 5.0 8.0 0.00 0.00 0.00 50 1014.2
20260901181532 96 99 4.0 8.0 0.00 0.00 0.00 50 1014.2
20260901181032 96 159 4.0 5.0 0.00 0.00 0.00 50 1014.2
20260901180531 96 128 3.0 5.0 0.00 0.00 0.00 51 1014.4
20260901180031 96 121 5.0 5.0 0.00 0.00 0.00 51 1014.5
20260901175031 95 105 6.0 6.0 0.00 0.00 0.00 52 1014.6
20260901174531 95 267 0.0 5.0 0.00 0.00 0.00 52 1014.7
20260901174031 95 123 2.0 6.0 0.00 0.00 0.00 52 1014.9
20260901173531 95 75 1.0 8.0 0.00 0.00 0.00 53 1014.9
20260901173031 95 102 4.0 8.0 0.00 0.00 0.00 53 1015.0
20260901172031 94 71 2.0 6.0 0.00 0.00 0.00 54 1015.2
20260901171530 94 110 1.0 6.0 0.00 0.00 0.00 54 1015.2
20260901171030 94 94 4.0 6.0 0.00 0.00 0.00 55 1015.2
20260901170530 93 105 1.0 3.0 0.00 0.00 0.00 56 1015.3
20260901170030 93 129 2.0 2.0 0.00 0.00 0.00 56 1015.3
20260901165531 92 98 1.0 4.0 0.00 0.00 0.00 57 1015.4
20260901165030 92 106 2.0 4.0 0.00 0.00 0.00 57 1015.4
20260901164530 92 105 2.0 5.0 0.00 0.00 0.00 58 1015.4
20260901164030 92 168 2.0 5.0 0.00 0.00 0.00 58 1015.4
20260901163530 92 115 1.0 4.0 0.00 0.00 0.00 58 1015.4
20260901162530 91 77 2.0 3.0 0.00 0.00 0.00 59 1015.5
20260901162030 91 113 0.0 3.0 0.00 0.00 0.00 61 1015.5
20260901161030 91 176 2.0 4.0 0.00 0.00 0.00 63 1015.7
20260901160530 90 267 1.0 3.0 0.00 0.00 0.00 64 1015.6
20260901160030 90 99 1.0 3.0 0.00 0.00 0.00 64 1015.6
20260901155030 90 123 5.0 7.0 0.00 0.00 0.00 64 1015.7
20260901154530 89 46 0.0 2.0 0.00 0.00 0.00 66 1015.6
20260901153530 89 142 0.0 3.0 0.00 0.00 0.00 67 1015.7
20260901153030 88 107 1.0 3.0 0.00 0.00 0.00 68 1015.6
20260901152530 88 115 2.0 2.0 0.00 0.00 0.00 69 1015.5
20260901152029 87 5 0.0 3.0 0.00 0.00 0.00 69 1015.5
20260901151530 87 296 2.0 4.0 0.00 0.00 0.00 70 1015.5
20260901151029 87 245 2.0 4.0 0.00 0.00 0.00 71 1015.5
20260901150529 87 190 2.0 4.0 0.00 0.00 0.00 72 1015.6
20260901150030 87 339 4.0 4.0 0.00 0.00 0.00 72 1015.6
20260901145529 87 5 3.0 3.0 0.00 0.00 0.00 73 1015.7
20260901145030 87 227 2.0 3.0 0.00 0.00 0.00 73 1015.7
20260901144529 86 122 0.0 3.0 0.00 0.00 0.00 74 1015.6
20260901144029 86 126 0.0 3.0 0.00 0.00 0.00 74 1015.7
20260901143529 86 267 1.0 3.0 0.00 0.00 0.00 74 1015.8
20260901143029 85 335 0.0 0.0 0.00 0.00 0.00 75 1015.8
20260901142529 85 209 0.0 0.0 0.00 0.00 0.00 76 1015.8
20260901142029 85 160 0.0 0.0 0.00 0.00 0.00 76 1015.9
20260901141529 85 331 0.0 2.0 0.00 0.00 0.00 76 1015.9
20260901141029 84 302 0.0 2.0 0.00 0.00 0.00 77 1016.0
20260901140529 84 52 1.0 1.0 0.00 0.00 0.00 77 1016.0
20260901135529 83 188 0.0 3.0 0.00 0.00 0.00 78 1015.9
20260901135029 83 337 1.0 3.0 0.00 0.00 0.00 78 1015.9
20260901134529 83 282 0.0 3.0 0.00 0.00 0.00 78 1015.8
20260901134029 83 342 1.0 3.0 0.00 0.00 0.00 78 1015.7
20260901132529 82 321 0.0 2.0 0.00 0.00 0.00 79 1015.6
20260901132028 82 306 0.0 2.0 0.00 0.00 0.00 79 1015.6
20260901131528 82 336 0.0 0.0 0.00 0.00 0.00 80 1015.5
20260901131028 81 270 0.0 0.0 0.00 0.00 0.00 80 1015.5
20260901130528 81 270 0.0 0.0 0.00 0.00 0.00 80 1015.5
20260901130028 80 270 0.0 0.0 0.00 0.00 0.00 81 1015.6
20260901125528 80 270 0.0 0.0 0.00 0.00 0.00 81 1015.5
20260901125028 79 270 0.0 0.0 0.00 0.00 0.00 81 1015.4